Probability
1 3 3 2 2 3 3 2 2 1 1 1 1 1 3 4 4 3 3 8 17 18 14 12 9 6 5 4 4 3 2 1 1 0 0 0 0 0 0 0 0 0 0
1 1 1 1 1 2 2 2 2 2 1 1 0 1 2 2 2 1 2 6 13 15 13 11 9 8 6 6 5 6 6 5 3 1 1 0 0 0 0 0 0 0 0
0 0 0 0 0 1 1 2 2 2 2 1 1 0 0 0 0 0 1 4 7 10 11 11 11 13 12 9 8 9 11 10 7 4 2 1 1 0 0 0 0 0 0
0 0 0 0 0 0 1 1 2 2 2 2 1 0 0 0 1 0 1 2 5 7 8 8 13 19 20 16 13 13 15 16 14 9 5 3 2 1 0 0 0 0 0
0 0 0 0 0 0 0 0 1 1 2 1 1 0 0 1 1 0 0 2 4 7 7 7 13 21 24 24 22 21 20 20 19 15 10 6 4 2 1 0 0 0 0
0 0 0 0 0 0 0 0 0 0 0 0 0 0 0 1 2 1 1 2 4 6 6 6 10 15 20 26 31 32 30 26 24 22 18 13 8 4 1 0 0 0 0
0 0 0 0 0 0 0 0 0 0 0 0 0 0 0 1 2 2 2 3 3 4 4 5 7 10 13 20 29 35 38 36 34 33 30 25 18 12 5 1 0 0 0
0 0 0 0 0 0 0 0 0 0 0 0 0 0 0 0 1 2 2 2 2 3 3 4 5 7 10 14 20 27 36 43 44 44 44 40 33 25 15 6 1 0 0
0 0 0 0 0 0 0 0 0 0 0 0 0 0 0 0 0 1 1 1 2 3 3 3 3 4 7 9 12 17 26 38 47 51 51 50 47 39 28 16 7 2 0
0 0 0 0 0 0 0 0 0 0 0 0 0 0 0 0 0 0 0 1 1 2 3 3 3 4 4 5 6 11 17 26 37 46 50 53 55 52 42 29 16 6 1
0 0 0 0 0 0 0 0 0 0 0 0 0 0 0 0 0 0 0 0 0 1 1 2 3 4 4 4 4 6 11 14 21 30 40 48 55 59 55 42 24 10 4
0 0 0 0 0 0 0 0 0 0 0 0 0 0 0 0 0 0 0 0 0 0 0 1 2 3 3 3 4 6 7 7 7 13 23 34 46 57 60 50 33 18 12
0 0 0 0 0 0 0 0 0 0 0 0 0 0 0 0 0 0 0 0 0 0 0 0 1 1 1 3 4 5 5 4 2 3 9 19 30 42 51 51 43 35 30
0 0 0 0 0 0 0 0 0 0 0 0 0 0 0 0 0 0 0 0 0 0 0 0 0 0 0 1 2 3 4 3 1 0 3 8 14 22 31 39 43 44 43
0 0 0 0 0 0 0 0 0 0 0 0 0 0 0 0 0 0 0 0 0 0 0 0 0 0 0 0 0 1 3 2 0 0 1 2 4 7 12 18 24 29 30
0 0 0 0 0 0 0 0 0 0 0 0 0 0 0 0 0 0 0 0 0 0 0 0 0 0 0 0 0 0 1 0 0 0 0 0 1 1 2 3 6 9 9
0 0 0 0 0 0 0 0 0 0 0 0 0 0 0 0 0 0 0 0 0 0 0 0 0 0 0 0 0 0 0 0 0 0 0 0 0 0 0 0 0 1 1
0 0 0 0 0 0 0 0 0 0 0 0 0 0 0 0 0 0 0 0 0 0 0 0 0 0 0 0 0 0 1 1 2 1 0 0 0 0 0 0 0 0 0
0 0 0 0 0 0 0 0 0 0 0 0 0 0 0 0 0 0 0 0 0 0 0 0 0 0 0 0 0 0 1 2 3 2 1 0 0 0 0 0 0 0 0
0 0 0 0 0 0 0 0 0 0 0 0 0 0 0 0 0 0 0 0 0 0 0 0 0 0 0 0 0 0 1 1 2 2 1 0 0 0 0 0 0 0 0
0 0 0 0 0 0 0 0 0 0 0 0 0 0 0 0 0 0 0 0 0 0 0 0 0 0 0 0 0 0 0 0 1 1 0 0 0 0 0 0 0 0 0
0 0 0 0 0 0 0 0 0 0 0 0 0 0 0 0 0 0 0 0 0 0 0 0 0 0 0 0 0 0 0 0 0 0 0 0 0 0 0 0 0 0 0
0 0 0 0 0 0 0 0 0 0 0 0 0 0 0 0 0 0 0 0 0 0 0 0 0 0 0 0 0 0 0 0 0 0 0 0 0 0 0 0 0 0 0
0 0 0 0 0 0 0 0 0 0 0 0 0 0 0 0 0 0 0 0 0 0 0 0 0 0 0 0 0 0 0 0 0 0 0 0 0 0 0 0 0 0 0
0 0 0 0 0 0 0 0 0 0 0 0 0 0 0 0 0 0 0 0 0 0 0 0 0 0 0 0 0 0 0 0 0 0 0 0 0 0 0 0 0 0 0
0 0 0 0 0 0 0 0 0 0 0 0 0 0 0 0 0 0 0 0 0 0 0 0 0 0 0 0 0 0 0 0 0 0 0 0 0 0 0 0 0 0 0
Wind_Speed
1 1 0 0 1 1 2 2 3 4 4 3 3 4 4 4 3 3 3 12 15 16 18 19 19 19 19 18 17 17 17 16 15 13 13 14 14 14 14 13 13 12 12
1 1 0 0 0 1 2 2 3 3 3 2 2 2 3 3 3 3 3 7 14 16 17 19 20 20 20 19 19 18 17 17 16 15 14 14 14 14 14 14 13 13 12
2 2 1 1 1 0 0 1 1 1 2 2 2 3 2 3 4 4 4 4 7 14 17 18 19 19 20 20 20 20 18 17 17 16 15 15 14 14 14 14 14 13 12
3 3 2 1 1 1 1 1 1 1 1 1 2 3 3 3 4 4 4 5 5 6 12 18 19 19 20 21 21 21 20 18 18 18 17 16 16 15 15 15 14 14 13
3 3 2 1 1 2 1 1 1 1 1 1 2 3 3 3 4 4 5 6 7 7 6 12 19 20 21 21 21 22 21 21 20 19 19 19 18 16 16 15 15 15 14
3 3 2 2 2 2 1 1 0 0 1 2 3 3 3 4 3 4 6 6 6 8 8 8 8 13 20 20 21 21 22 22 21 21 21 21 20 18 17 16 16 16 15
3 3 2 2 2 1 1 1 1 1 1 0 1 2 3 3 3 4 4 4 5 7 7 7 6 6 8 19 21 22 23 24 23 22 22 21 21 20 19 18 17 17 16
2 3 3 2 2 1 2 2 2 1 1 1 1 1 3 4 3 3 2 3 4 4 5 7 6 8 7 6 11 21 23 23 24 24 23 22 21 21 20 20 19 18 18
1 1 3 2 2 2 1 1 1 2 1 1 1 2 1 2 3 3 2 2 2 3 4 4 6 7 8 7 7 15 22 22 22 24 24 23 22 21 21 21 21 20 19
1 0 1 2 1 1 1 0 1 1 1 1 1 0 2 3 2 3 4 3 3 2 3 4 5 6 7 6 8 12 18 20 21 23 23 24 23 22 22 23 23 22 21
3 2 2 2 1 1 1 0 1 0 1 1 1 1 1 1 2 2 3 4 4 3 3 3 3 4 5 6 6 10 14 17 19 21 23 23 24 24 24 24 25 24 23
3 3 3 2 1 1 1 1 0 1 1 1 1 1 1 1 1 2 3 3 3 4 3 3 3 3 4 5 8 12 14 14 16 18 21 22 23 24 25 26 26 26 25
1 2 2 2 1 1 1 1 1 1 1 1 2 2 2 3 2 2 2 3 3 3 3 3 3 3 3 3 5 10 12 13 14 15 17 20 21 23 24 25 26 26 25
1 1 1 1 1 1 2 1 1 2 2 2 3 3 2 3 2 3 3 2 2 3 3 4 3 3 3 3 5 7 6 11 13 13 15 17 18 20 22 23 23 23 23
1 0 1 1 2 2 2 1 1 2 2 3 3 3 3 3 2 3 3 3 3 3 4 4 3 3 3 3 5 4 5 8 12 13 14 15 16 17 19 20 21 21 21
0 1 2 2 2 2 2 1 2 3 3 3 3 3 3 3 3 3 2 2 3 4 4 3 4 4 4 4 4 4 5 9 11 12 13 14 15 17 18 19 20 21 21
1 1 2 2 2 3 2 2 3 3 3 3 3 3 4 3 3 3 2 2 3 3 4 4 3 3 3 4 4 3 4 5 5 10 12 13 14 16 17 18 19 20 21
2 2 2 2 3 3 3 3 4 3 3 4 4 4 4 4 4 3 3 3 3 4 4 5 3 3 4 4 4 4 4 4 5 9 12 13 14 15 16 17 18 19 19
3 3 3 3 4 4 4 4 3 4 4 4 4 4 5 4 5 4 4 4 4 4 3 4 4 3 3 3 3 4 4 3 5 6 9 11 13 13 14 16 17 18 19
3 3 3 4 4 4 4 4 4 4 4 5 5 5 5 5 6 6 5 5 4 4 3 3 3 3 3 3 2 2 3 3 3 3 5 5 8 11 13 15 16 18 18
4 4 3 4 4 4 4 4 4 4 4 5 5 5 6 8 9 7 6 5 5 4 3 3 4 3 3 2 3 2 3 3 3 2 2 2 3 4 6 10 14 16 17
3 3 4 4 5 4 6 7 6 4 5 5 6 6 6 8 9 9 10 9 7 6 5 4 4 4 5 4 3 3 2 2 3 2 2 3 2 3 4 5 10 14 16
3 3 4 4 5 7 10 10 9 6 5 6 6 6 6 7 7 5 7 9 8 10 10 7 6 7 6 5 4 4 4 4 4 3 2 3 2 3 3 5 10 13 15
3 4 5 5 6 8 10 10 10 6 5 6 6 6 7 7 7 6 6 6 6 6 8 6 7 8 8 6 6 5 5 4 3 3 3 3 3 3 3 3 8 12 14
4 4 5 6 6 8 11 11 8 4 4 6 6 6 6 6 9 9 5 6 6 7 8 10 10 10 11 11 7 3 3 2 3 3 3 3 2 2 2 3 4 9 11
5 5 5 6 6 7 10 11 8 3 4 5 5 6 8 8 9 8 5 5 7 7 6 6 6 7 7 8 10 7 6 4 3 3 4 3 3 2 2 1 1 2 4
Wind_Direction
125 113 295 197 197 189 198 204 205 206 210 218 222 220 222 221 212 198 210 205 201 200 195 193 192 191 190 191 191 190 189 188 185 181 179 177 175 173 171 169 166 162 160
133 122 77 356 256 209 200 202 199 199 200 201 219 222 221 220 220 208 202 207 208 207 205 202 200 198 196 195 196 195 194 193 189 187 185 183 181 180 178 176 173 170 167
111 106 92 53 335 324 188 152 181 172 184 201 219 231 228 224 222 215 203 198 208 214 215 212 207 205 203 201 200 200 199 196 192 191 190 188 185 184 183 181 179 177 174
115 102 93 61 5 53 68 96 119 159 219 224 232 243 238 232 229 220 210 206 206 213 221 221 216 212 208 207 205 205 203 201 197 195 194 192 190 188 187 186 184 182 180
112 106 95 61 43 51 41 20 91 144 230 264 252 245 244 240 234 229 222 215 210 210 210 222 221 217 213 212 210 209 207 205 202 199 198 198 196 193 191 190 188 186 185
115 111 100 80 67 58 24 4 0 221 220 244 266 270 256 247 236 228 228 223 215 214 213 219 221 222 219 216 214 212 211 209 206 204 203 202 201 197 195 194 193 191 190
117 114 106 88 74 70 33 6 13 351 311 284 356 318 304 272 246 240 232 227 225 220 215 217 216 215 221 222 218 215 214 213 209 208 207 205 204 201 199 198 196 195 194
123 136 133 127 104 78 38 36 51 42 336 42 110 34 334 332 319 275 253 231 233 226 222 222 218 217 219 215 220 220 218 217 213 210 209 208 206 203 202 201 200 198 197
93 140 155 145 126 114 91 47 80 95 357 337 91 139 152 264 305 315 308 279 257 236 234 230 224 225 224 218 217 221 221 218 216 215 212 209 207 205 204 204 203 201 200
351 348 150 146 132 119 107 24 101 111 117 324 327 280 193 190 215 305 315 314 310 271 251 245 237 229 228 221 220 219 221 219 218 218 216 212 209 207 206 206 206 206 204
14 37 76 97 101 104 114 53 50 70 156 187 228 272 292 258 198 204 288 313 320 300 276 253 245 237 230 223 220 224 221 219 220 221 219 216 212 209 208 208 210 210 209
19 33 59 60 62 48 336 290 268 265 248 235 230 216 204 220 230 213 248 278 289 289 285 264 249 244 240 229 228 227 225 222 221 223 222 219 216 212 210 211 212 212 212
8 6 41 42 21 332 316 321 303 287 261 256 250 243 225 219 210 201 219 259 274 287 298 288 261 256 249 236 237 234 229 225 223 223 224 222 219 215 212 211 213 213 213
217 219 68 26 343 326 328 333 300 281 273 272 271 256 243 245 222 206 202 213 274 292 291 280 287 264 264 253 242 236 235 229 228 226 227 226 223 219 214 211 210 211 211
215 188 326 323 307 303 302 309 286 283 285 270 268 264 252 252 244 230 213 196 203 253 274 270 275 277 273 261 248 235 233 233 231 226 226 226 225 222 217 211 208 208 208
268 315 314 303 294 289 288 289 283 281 282 276 263 268 268 260 263 255 237 223 204 210 246 256 252 270 283 281 261 246 241 238 235 229 224 223 223 223 219 214 209 207 206
245 266 274 281 283 284 282 272 270 276 277 281 281 272 270 267 265 268 259 246 233 210 240 265 257 267 272 278 283 265 252 237 234 230 227 225 224 223 219 215 211 208 207
249 251 259 268 272 269 265 261 267 275 268 271 274 272 271 273 269 265 258 253 247 229 224 258 271 267 261 262 263 265 260 246 233 231 228 227 226 224 220 216 212 209 208
254 263 259 263 264 262 261 255 247 257 258 260 262 260 264 265 265 263 259 255 252 253 224 235 259 257 261 267 267 268 265 265 250 237 229 228 228 227 223 218 214 211 210
245 255 257 257 257 261 255 251 253 257 260 262 261 257 258 253 251 255 258 252 250 255 248 242 255 263 260 267 254 259 274 265 260 250 237 229 230 230 228 221 216 213 211
244 248 256 264 265 260 245 244 251 255 254 264 268 264 263 263 259 253 252 243 238 239 245 243 251 260 261 259 247 242 253 269 261 240 242 237 230 232 228 224 219 214 211
253 256 261 263 268 265 255 249 244 246 251 256 266 271 273 271 271 269 268 259 232 222 227 230 238 241 250 243 238 236 238 252 274 258 218 246 215 234 232 221 218 213 212
245 258 264 263 264 267 265 261 255 239 244 252 257 264 274 276 278 270 274 277 264 249 230 218 228 237 239 234 229 241 233 224 231 239 204 244 223 235 238 234 220 214 212
246 252 257 262 264 269 270 267 261 244 246 255 255 255 258 269 273 265 263 269 265 262 248 234 228 237 240 235 221 227 233 240 257 251 197 230 228 232 237 235 224 214 213
253 253 257 261 263 272 275 271 259 237 249 261 264 264 260 261 270 271 259 261 268 272 268 253 241 245 250 250 231 214 221 219 248 253 210 208 232 236 242 241 231 215 212
248 259 266 263 259 266 273 270 256 221 247 263 270 269 266 263 271 270 247 246 258 263 268 279 269 267 261 260 242 217 209 209 220 241 220 196 214 196 251 257 232 211 206